Weather History for MZBZ - August, 2013

Change the Weather History Date:

Friday, August 23, 2013

  Actual Average Record
Temperature  
Mean Temperature 79 °F -  
Max Temperature 82 °F 88 °F 91 °F (2011)
Min Temperature 76 °F 75 °F 75 °F (2014)
Cooling Degree Days 14    
Growing Degree Days 29 (Base 50)    
Moisture  
Dew Point 76 °F    
Average Humidity 92    
Maximum Humidity 95    
Minimum Humidity 84    
Precipitation  
Precipitation 1.34 in 0.34 in - ()
Sea Level Pressure  
Sea Level Pressure 29.83 in    
Wind  
Wind Speed 3 mph ()    
Max Wind Speed 10 mph    
Max Gust Speed -    
Visibility 5.5 miles    
Events Rain , Thunderstorm    
Averages and records for this station are not official NWS values.
T = Trace of Precipitation, MM = Missing Value Source: Averaged Metar Reports

Daily Weather History Graph

Daily Weather History Graph

Search for Another Location

Airport or City:

Trip Planner

Search our weather history database for the weather conditions in past years. The results will help you decide how hot, cold, wet, or windy it might be!

Date:

Astronomy

Aug. 23, 2013 Rise Set
Actual Time 5:37 AM CST 6:13 PM CST
Civil Twilight 5:15 AM CST 6:35 PM CST
Nautical Twilight 4:49 AM CST 7:01 PM CST
Astronomical Twilight 4:23 AM CST 7:28 PM CST
Moon 8:10 PM CST (8/23) 7:58 AM CST (8/23)
Length of Visible Light 13h 20m
Length of Day
12h 35m
Waning Gibbous, 91% of the Moon is Illuminated
Aug 23
Waning Gibbous
Aug 28
Last Quarter
Sep 5
New
Sep 12
First Quarter
Sep 19
Full

Hourly Weather History & Observations

Time (CST) Temp. Heat Index Dew Point Humidity Pressure Visibility Wind Dir Wind Speed Gust Speed Precip Events Conditions
5:00 AM 78.8 °F - 77.0 °F 94% 29.83 in 6.2 mi Calm Calm - N/A   Mostly Cloudy
5:15 AM 78.8 °F - 77.0 °F 94% 29.84 in 3.1 mi Variable 2.3 mph - N/A Rain Light Rain
6:00 AM 77 °F - 76 °F 94% 29.84 in 12 mi West 3.5 mph - -   Partly Cloudy
6:00 AM 77.0 °F - 75.2 °F 94% 29.84 in 6.2 mi West 3.5 mph - N/A   Mostly Cloudy
7:00 AM 77.0 °F - 75.2 °F 94% 29.85 in 6.2 mi WNW 5.8 mph - N/A Rain Rain Showers
7:18 AM 77.0 °F - 75.2 °F 94% 29.83 in 6.2 mi NW 5.8 mph - N/A Rain , Thunderstorm Light Thunderstorms and Rain
7:33 AM 77.0 °F - 75.2 °F 94% 29.83 in 5.0 mi NW 5.8 mph - N/A Thunderstorm Thunderstorm
8:00 AM 77.0 °F - 75.2 °F 94% 29.87 in 0.9 mi Calm Calm - N/A Rain , Thunderstorm Heavy Thunderstorms and Rain
8:37 AM 77.0 °F - 75.2 °F 94% 29.87 in 0.9 mi West 4.6 mph - N/A Rain Heavy Rain Showers
8:45 AM 77.0 °F - 75.2 °F 94% 29.87 in 5.0 mi NW 6.9 mph - N/A Thunderstorm Thunderstorm
9:00 AM 76 °F - 75 °F 95% 29.87 in 11 mi NW 4.6 mph - - Rain , Thunderstorm Thunderstorms and Rain
9:00 AM 77.0 °F - 75.2 °F 94% 29.86 in 5.0 mi NW 4.6 mph - N/A Rain , Thunderstorm Light Thunderstorms and Rain
9:25 AM 77.0 °F - 75.2 °F 94% 2.98 in 0.9 mi Variable 2.3 mph - N/A Rain Heavy Rain Showers
9:35 AM 77.0 °F - 75.2 °F 94% 2.98 in 4.3 mi WNW 3.5 mph - N/A Rain Light Rain Showers
10:00 AM 77.0 °F - 75.2 °F 94% 29.86 in 6.2 mi West 4.6 mph - N/A   Mostly Cloudy
11:00 AM 78.8 °F - 77.0 °F 94% 29.86 in 0.9 mi Variable 2.3 mph - N/A Rain Heavy Rain Showers
11:15 AM 78.8 °F - 77.0 °F 94% 29.84 in 3.1 mi Variable 2.3 mph - N/A Rain Light Rain
11:40 AM 78.8 °F - 77.0 °F 94% 29.84 in 6.2 mi Variable 2.3 mph - N/A   Mostly Cloudy
12:00 PM 79 °F - 77 °F 91% 29.83 in 12 mi WNW 3.5 mph - - Rain Light Rain Showers
12:00 PM 78.8 °F - 77.0 °F 94% 29.83 in 6.2 mi WNW 3.5 mph - N/A   Mostly Cloudy
1:00 PM 82.4 °F 90.9 °F 77.0 °F 84% 29.81 in 6.2 mi NE 4.6 mph - N/A   Mostly Cloudy
2:00 PM 80.6 °F 87.1 °F 77.0 °F 89% 29.80 in 4.3 mi ENE 5.8 mph - N/A Rain Light Rain
3:00 PM 79 °F - 76 °F 87% 29.79 in 11 mi ESE 9.2 mph - -  
3:00 PM 78.8 °F - 75.2 °F 89% 29.79 in 6.2 mi ESE 5.8 mph - N/A   Mostly Cloudy
3:57 PM 82.4 °F 90.9 °F 77.0 °F 84% 29.78 in - ENE 8.1 mph - N/A Rain Heavy Rain
4:00 PM 82.4 °F 90.9 °F 77.0 °F 84% 29.78 in - ENE 10.4 mph - N/A Rain Heavy Rain
4:10 PM 82.4 °F 90.9 °F 77.0 °F 84% 29.78 in 5.0 mi East 6.9 mph - N/A   Mostly Cloudy
5:00 PM 77.0 °F - 75.2 °F 94% 2.97 in 5.0 mi SSW 3.5 mph - N/A Rain Light Rain Showers
5:04 PM 77.0 °F - 75.2 °F 94% 29.77 in - North - - N/A Rain Rain Showers
5:11 PM 77.0 °F - 75.2 °F 94% 2.97 in 3.1 mi Calm Calm - N/A Rain Light Rain Showers
6:00 PM 77.0 °F - 75.2 °F 94% 29.79 in 5.0 mi Calm Calm - N/A   Mostly Cloudy